Location: Unspecified
(0.0000°N, 0.0000°E)
Time: 20:10:27
(UTC+00:00)

STARLINK-32465 - Visible Passes

Search period start: 12 January 2025 00:00
Search period end: 22 January 2025 00:00
Orbit: 446 x 448 km, 53.2° (Epoch: 12 January)

Date Brightness Start Highest point End Pass type
(mag) Time Alt. Az. Time Alt. Az. Time Alt. Az.
17 Jan 5.0 18:48:07 10° NNE 18:49:55 13° NE 18:50:32 13° ENE visible
17 Jan 6.5 20:24:18 10° WNW 20:24:21 10° WNW 20:24:21 10° WNW visible
18 Jan 4.9 19:45:26 10° WNW 19:48:40 34° SW 19:51:54 10° S visible
19 Jan 3.7 19:06:53 10° NW 19:10:21 61° SW 19:13:50 10° SSE visible
